Location: ????????
(60.5616°N, 46.8254°E)
Time: 18:38:08
(UTC+00:00)

GENESIS II - Pass Details

Date: 18 February 2020
Orbit: 480 x 548 km, 64.5° (Epoch: 05 April)

Event Time Altitude Azimuth Distance (km) Brightness Sun altitude
Rises 16:12:05 0° 249° (WSW) 2,705 8.9 -18.2°
Reaches altitude 10° 16:14:17 10° 252° (WSW) 1,820 7.9 -18.4°
Maximum altitude 16:18:23 70° 336° (NNW) 590 4.5 -18.9°
Enters shadow 16:19:54 37° 50° (NE) 873 5.0 -19.1°
